Weather History for St. George, AK

Change the Weather History Date:

Thursday, August 8, 2013

  Actual Average Record
Temperature  
Mean Temperature 50 °F -  
Max Temperature 53 °F 50 °F 61 °F (1997)
Min Temperature 48 °F 44 °F 42 °F (2012)
Degree Days  
Heating Degree Days 15    
Moisture  
Dew Point 48 °F    
Average Humidity 95    
Maximum Humidity 100    
Minimum Humidity 86    
Precipitation  
Precipitation 0.01 in - - ()
Sea Level Pressure  
Sea Level Pressure 29.40 in    
Wind  
Wind Speed 6 mph (West)    
Max Wind Speed 12 mph    
Max Gust Speed -    
Visibility 4 miles    
Events Fog    
Averages and records for this station are not official NWS values.
T = Trace of Precipitation, MM = Missing Value Source: NWS Daily Summary

Daily Weather History Graph

Daily Weather History Graph

Search for Another Location

Airport:

Trip Planner

Search our weather history database for the weather conditions in past years. The results will help you decide how hot, cold, wet, or windy it might be!

Date:

Astronomy

Aug. 08, 2013 Rise Set
Actual Time 7:34 AM AKDT 11:12 PM AKDT
Civil Twilight 6:47 AM AKDT 11:58 PM AKDT
Nautical Twilight 5:41 AM AKDT 1:04 AM AKDT
Astronomical Twilight 3:56 AM AKDT 2:51 AM AKDT
Moon 10:11 AM AKDT (8/8) 11:15 PM AKDT (8/8)
Length of Visible Light 17h 11m
Length of Day
15h 38m
Waxing Crescent, 4% of the Moon is Illuminated
Aug 8
Waxing Crescent
Aug 14
First Quarter
Aug 20
Full
Aug 28
Last Quarter
Sep 5
New

Hourly Weather History & Observations

Time (AKDT) Temp. Dew Point Humidity Pressure Visibility Wind Dir Wind Speed Gust Speed Precip Events Conditions
12:53 AM 48.9 °F 46.0 °F 90% 29.39 in 10.0 mi West 10.4 mph - N/A   Overcast
1:53 AM 48.9 °F 46.9 °F 93% 29.39 in 10.0 mi West 4.6 mph - N/A   Overcast
2:17 AM 48.2 °F 46.4 °F 93% 29.42 in 10.0 mi West 4.6 mph - N/A   Overcast
2:30 AM 48.2 °F 46.4 °F 93% 29.42 in 2.5 mi WSW 5.8 mph - N/A   Overcast
2:34 AM 48.2 °F 46.4 °F 93% 29.42 in 1.0 mi WSW 5.8 mph - N/A   Overcast
2:42 AM 48.2 °F 46.4 °F 93% 29.42 in 0.8 mi WSW 8.1 mph - N/A   Mist
2:47 AM 48.2 °F 46.4 °F 93% 29.42 in 1.2 mi West 10.4 mph - N/A   Overcast
2:53 AM 48.9 °F 46.9 °F 93% 29.38 in 5.0 mi West 9.2 mph - N/A   Overcast
3:15 AM 48.2 °F 48.2 °F 100% 29.42 in 8.0 mi West 5.8 mph - N/A   Overcast
3:38 AM 48.2 °F 48.2 °F 100% 29.41 in 4.0 mi West 3.5 mph - N/A   Overcast
3:49 AM 48.2 °F 48.2 °F 100% 29.41 in 1.8 mi West 5.8 mph - N/A   Overcast
3:53 AM 48.0 °F 48.0 °F 100% 29.37 in 1.2 mi West 4.6 mph - N/A   Overcast
4:00 AM 48.2 °F 48.2 °F 100% 29.41 in 0.8 mi West 4.6 mph - N/A   Mist
4:14 AM 48.2 °F 48.2 °F 100% 29.41 in 1.2 mi West 8.1 mph - N/A   Overcast
4:19 AM 48.2 °F 48.2 °F 100% 29.41 in 3.0 mi West 5.8 mph - N/A   Overcast
4:39 AM 48.2 °F 48.2 °F 100% 29.40 in 6.0 mi Calm Calm - N/A   Overcast
4:53 AM 48.0 °F 48.0 °F 100% 29.36 in 9.0 mi West 3.5 mph - N/A   Overcast
5:12 AM 48.2 °F 46.4 °F 93% 29.39 in 6.0 mi WSW 4.6 mph - N/A   Overcast
5:22 AM 48.2 °F 46.4 °F 93% 29.39 in 3.0 mi WSW 5.8 mph - N/A   Overcast
5:35 AM 48.2 °F 46.4 °F 93% 29.39 in 10.0 mi WSW 4.6 mph - N/A   Overcast
5:53 AM 48.0 °F 46.9 °F 96% 29.35 in 4.0 mi SSW 3.5 mph - N/A   Overcast
6:00 AM 48.2 °F 46.4 °F 93% 29.38 in 1.8 mi SSW 3.5 mph - N/A   Overcast
6:20 AM 48.2 °F 48.2 °F 100% 29.38 in 0.8 mi SSW 4.6 mph - N/A   Mist
6:53 AM 48.9 °F 48.0 °F 97% 29.34 in 0.5 mi South 3.5 mph - 0.01 in Fog Fog
7:53 AM 50.0 °F 48.9 °F 96% 29.33 in 0.2 mi South 5.8 mph - N/A Fog Fog
8:05 AM 50.0 °F 48.2 °F 94% 29.36 in 0.2 mi SSW 5.8 mph - N/A Fog Fog
8:31 AM 50.0 °F 48.2 °F 94% 29.36 in 0.2 mi SSW 4.6 mph - N/A Fog Fog
8:53 AM 50.0 °F 50.0 °F 100% 29.33 in 0.2 mi West 3.5 mph - N/A Fog Fog
9:19 AM 50.0 °F 50.0 °F 100% 29.37 in 1.0 mi Calm Calm - N/A   Overcast
9:26 AM 50.0 °F 50.0 °F 100% 29.37 in 1.2 mi Calm Calm - N/A   Overcast
9:31 AM 50.0 °F 50.0 °F 100% 29.37 in 1.0 mi Calm Calm - N/A   Overcast
9:42 AM 50.0 °F 50.0 °F 100% 29.37 in 1.2 mi Calm Calm - N/A   Overcast
9:47 AM 50.0 °F 48.2 °F 94% 29.37 in 0.8 mi West 3.5 mph - N/A   Overcast
9:53 AM 50.0 °F 48.9 °F 96% 29.33 in 0.5 mi Calm Calm - N/A Fog Fog
10:23 AM 50.0 °F 48.2 °F 94% 29.37 in 1.2 mi NNW 5.8 mph - N/A   Overcast
10:27 AM 51.8 °F 50.0 °F 94% 29.37 in 4.0 mi NNW 5.8 mph - N/A   Overcast
10:53 AM 50.0 °F 50.0 °F 100% 29.34 in 4.0 mi North 9.2 mph - N/A   Overcast
11:00 AM 50.0 °F 50.0 °F 100% 29.38 in 3.0 mi North 11.5 mph - N/A   Overcast
11:53 AM 51.1 °F 50.0 °F 96% 29.36 in 10.0 mi North 6.9 mph - N/A   Mostly Cloudy
12:53 PM 50.0 °F 46.9 °F 89% 29.37 in 10.0 mi NNW 11.5 mph - N/A   Mostly Cloudy
1:53 PM 50.0 °F 46.9 °F 89% 29.39 in 10.0 mi West 9.2 mph - N/A   Overcast
2:53 PM 51.1 °F 46.9 °F 86% 29.40 in 10.0 mi WNW 6.9 mph - N/A   Overcast
3:53 PM 51.1 °F 48.0 °F 89% 29.40 in 8.0 mi West 9.2 mph - N/A   Overcast
4:53 PM 52.0 °F 48.9 °F 89% 29.41 in 10.0 mi West 10.4 mph - N/A   Overcast
5:20 PM 51.8 °F 48.2 °F 88% 29.45 in 7.0 mi West 8.1 mph - N/A   Overcast
5:53 PM 51.1 °F 48.9 °F 92% 29.42 in 10.0 mi West 5.8 mph - N/A   Overcast
6:33 PM 51.8 °F 48.2 °F 88% 29.45 in 10.0 mi West 6.9 mph - N/A   Overcast
6:53 PM 51.1 °F 48.9 °F 92% 29.42 in 10.0 mi West 6.9 mph - N/A   Overcast
7:25 PM 50.0 °F 48.2 °F 94% 29.46 in 5.0 mi West 5.8 mph - N/A   Overcast
7:30 PM 50.0 °F 48.2 °F 94% 29.46 in 1.8 mi West 5.8 mph - N/A   Overcast
7:33 PM 50.0 °F 48.2 °F 94% 29.46 in 0.8 mi West 4.6 mph - N/A   Overcast
7:51 PM 50.0 °F 48.2 °F 94% 29.46 in 1.5 mi West 5.8 mph - N/A   Overcast
7:53 PM 50.0 °F 48.9 °F 96% 29.42 in 2.5 mi West 4.6 mph - N/A   Overcast
8:00 PM 50.0 °F 48.2 °F 94% 29.46 in 6.0 mi West 5.8 mph - N/A   Overcast
8:08 PM 50.0 °F 48.2 °F 94% 29.46 in 1.8 mi West 5.8 mph - N/A   Overcast
8:14 PM 50.0 °F 48.2 °F 94% 29.46 in 0.8 mi West 5.8 mph - N/A   Mist
8:49 PM 48.2 °F 48.2 °F 100% 29.46 in 1.2 mi West 5.8 mph - N/A   Overcast
8:53 PM 48.9 °F 48.0 °F 97% 29.43 in 3.0 mi West 4.6 mph - N/A   Overcast
9:35 PM 48.2 °F 48.2 °F 100% 29.47 in 10.0 mi West 4.6 mph - N/A   Overcast
9:53 PM 48.9 °F 48.0 °F 97% 29.44 in 10.0 mi WSW 5.8 mph - N/A   Overcast
10:46 PM 50.0 °F 48.2 °F 94% 29.48 in 1.8 mi West 4.6 mph - N/A   Overcast
10:53 PM 48.9 °F 48.0 °F 97% 29.44 in 0.8 mi West 5.8 mph - N/A   Overcast
11:53 PM 48.9 °F 48.9 °F 100% 29.46 in 0.5 mi Calm Calm - N/A Fog Fog